Location: Mentone
(34.5413°N, 85.5351°W)
Time: 02:57:29
(UTC-05:00)

Cosmos 2026 Rocket - Visible Passes

Search period start: 25 August 2016 00:00
Search period end: 04 September 2016 00:00
Orbit: 940 x 1001 km, 82.9° (Epoch: 24 August)

Date Brightness Start Highest point End Pass type
(mag) Time Alt. Az. Time Alt. Az. Time Alt. Az.
25 Aug 6.2 00:36:45 10° N 00:38:23 19° N 00:38:23 19° N visible
26 Aug 6.2 01:00:39 10° N 01:02:02 18° NNW 01:02:02 18° NNW visible
26 Aug 6.4 23:40:14 10° NNE 23:41:08 13° NNE 23:41:08 13° NNE visible
27 Aug 6.4 01:24:58 10° NNW 01:25:40 13° NNW 01:25:40 13° NNW visible
28 Aug 6.3 00:03:29 10° N 00:04:47 17° NNE 00:04:47 17° NNE visible
29 Aug 6.3 00:27:14 10° N 00:28:27 17° N 00:28:27 17° N visible
29 Aug 6.5 23:07:21 10° NNE 23:07:34 11° NNE 23:07:34 11° NNE visible
30 Aug 6.5 00:51:21 10° NNW 00:52:07 14° NNW 00:52:07 14° NNW visible
30 Aug 6.3 23:30:18 10° NNE 23:31:15 14° NNE 23:31:15 14° NNE visible
31 Aug 6.4 23:53:52 10° N 23:54:57 16° N 23:54:57 16° N visible
02 Sep 6.5 00:17:49 10° NNW 00:18:39 14° NNW 00:18:39 14° NNW visible
02 Sep 6.4 22:57:13 10° NNE 22:57:49 12° NNE 22:57:49 12° NNE visible
03 Sep 6.7 00:42:14 10° NNW 00:42:22 11° NNW 00:42:22 11° NNW visible
03 Sep 6.3 23:20:34 10° N 23:21:33 15° N 23:21:33 15° N visible
